Weather History for KJST - November, 2012

Change the Weather History Date:

Wednesday, November 7, 2012

  Actual Average Record
Temperature  
Mean Temperature 30 °F 43 °F  
Max Temperature 35 °F 50 °F 83 °F (1938)
Min Temperature 24 °F 37 °F 22 °F (1957)
Degree Days  
Heating Degree Days 36 22  
Month to date heating degree days 145  
Since 1 July heating degree days 838  
Cooling Degree Days 0 0  
Month to date cooling degree days 0  
Year to date cooling degree days 382  
Moisture  
Dew Point 19 °F    
Average Humidity 65    
Maximum Humidity 84    
Minimum Humidity 48    
Precipitation  
Precipitation 0.00 in 0.13 in 1.30 in (1968)
Month to date precipitation 0.87  
Year to date precipitation 28.22  
Sea Level Pressure  
Sea Level Pressure 29.98 in    
Wind  
Wind Speed 5 mph (NE)    
Max Wind Speed 8 mph    
Max Gust Speed -    
Visibility 10 miles    
Events      
T = Trace of Precipitation, MM = Missing Value Source: NWS Daily Summary

Daily Weather History Graph

Daily Weather History Graph

Search for Another Location

Airport or City:

Trip Planner

Search our weather history database for the weather conditions in past years. The results will help you decide how hot, cold, wet, or windy it might be!

Date:

Astronomy

Nov. 07, 2012 Rise Set
Actual Time 6:52 AM EST 5:05 PM EST
Civil Twilight 6:23 AM EST 5:33 PM EST
Nautical Twilight 5:51 AM EST 6:06 PM EST
Astronomical Twilight 5:19 AM EST 6:38 PM EST
Moon No Moon Rise 1:14 PM EST (11/7)
Length of Visible Light 11h 10m
Length of Day
10h 12m
Last Quarter, 43% of the Moon is Illuminated
Nov 7
Last Quarter
Nov 13
New
Nov 20
First Quarter
Nov 28
Full
Dec 6
Last Quarter

Hourly Weather History & Observations

Time (EST) Temp. Windchill Dew Point Humidity Pressure Visibility Wind Dir Wind Speed Gust Speed Precip Events Conditions
12:54 AM 26.1 °F 20.5 °F 19.0 °F 75% 29.99 in 10.0 mi ESE 4.6 mph - N/A   Clear
1:54 AM 27.0 °F 21.6 °F 19.0 °F 72% 29.99 in 10.0 mi SE 4.6 mph - N/A   Clear
2:54 AM 26.1 °F - 19.0 °F 75% 29.96 in 10.0 mi Calm Calm - N/A   Clear
3:54 AM 25.0 °F 20.7 °F 19.0 °F 78% 29.96 in 10.0 mi East 3.5 mph - N/A   Clear
4:54 AM 25.0 °F 19.3 °F 19.0 °F 78% 29.96 in 10.0 mi East 4.6 mph - N/A   Clear
5:54 AM 24.1 °F 18.2 °F 19.9 °F 84% 29.96 in 9.0 mi ENE 4.6 mph - N/A   Clear
6:54 AM 25.0 °F 18.1 °F 19.9 °F 81% 29.97 in 10.0 mi ENE 5.8 mph - N/A   Clear
7:54 AM 26.1 °F 19.4 °F 19.9 °F 78% 29.99 in 10.0 mi ENE 5.8 mph - N/A   Clear
8:54 AM 28.0 °F 24.2 °F 19.9 °F 72% 30.00 in 10.0 mi East 3.5 mph - N/A   Clear
9:54 AM 28.9 °F 23.9 °F 19.9 °F 69% 29.99 in 10.0 mi East 4.6 mph - N/A   Clear
10:54 AM 30.9 °F 25.2 °F 21.0 °F 67% 29.97 in 10.0 mi ENE 5.8 mph - N/A   Clear
11:54 AM 32.0 °F 28.7 °F 21.9 °F 66% 29.96 in 10.0 mi NE 3.5 mph - N/A   Clear
12:54 PM 33.1 °F 27.7 °F 21.9 °F 64% 29.95 in 10.0 mi North 5.8 mph - N/A   Mostly Cloudy
1:54 PM 34.0 °F 28.8 °F 21.9 °F 61% 29.94 in 10.0 mi North 5.8 mph - N/A   Scattered Clouds
2:54 PM 35.1 °F 32.2 °F 21.9 °F 59% 29.96 in 10.0 mi NNE 3.5 mph - N/A   Clear
3:54 PM 34.0 °F 29.8 °F 19.9 °F 56% 29.97 in 10.0 mi North 4.6 mph - N/A   Mostly Cloudy
4:54 PM 33.1 °F 26.9 °F 19.9 °F 59% 29.99 in 10.0 mi North 6.9 mph - N/A   Mostly Cloudy
5:54 PM 32.0 °F 27.5 °F 18.0 °F 56% 30.01 in 10.0 mi North 4.6 mph - N/A   Clear
6:54 PM 32.0 °F 26.4 °F 14.0 °F 48% 30.01 in 10.0 mi North 5.8 mph - N/A   Clear
7:54 PM 32.0 °F 26.4 °F 16.0 °F 52% 30.01 in 10.0 mi NNW 5.8 mph - N/A   Clear
8:54 PM 30.9 °F 25.2 °F 16.0 °F 54% 30.02 in 10.0 mi NNW 5.8 mph - N/A   Clear
9:54 PM 30.0 °F 24.1 °F 15.1 °F 54% 30.02 in 10.0 mi North 5.8 mph - N/A   Clear
10:54 PM 30.9 °F 23.5 °F 14.0 °F 50% 30.01 in 10.0 mi North 8.1 mph - N/A   Clear
11:54 PM 28.9 °F 23.9 °F 14.0 °F 54% 30.01 in 10.0 mi NNE 4.6 mph - N/A   Clear